SPACEMOBILE-002 (61048 NORAD) Tracking and Keplerian Element Data

This shows tracking and keplerian element data for the satellite.

Feedback or suggestion? Click here.




ElementValue
Catalog61048
NameSPACEMOBILE-002
Epoch Orbit463
Epoch Day286.92096242
Epoch Year2024
RAAN242.035
Inclination52.9768
Eccentricity0.0013426
Argument of Perigee62.0498
Mean Anonmoly298.1852
Mean Motion15.17880488
Decay Rate4.983E-05
L11 61048U 24163D 24286.92096242 .00004983 00000+0 25787-3 0 9996
L22 61048 52.9768 242.0350 0013426 62.0498 298.1852 15.17880488 4637



Live tracking and technical data element details for SPACEMOBILE-002 (NORAD 61048). SPACEMOBILE-002 can be tracked NOW for your location showing map with azimuth and elevation plus other details from your city location.







IsCatalogInMostPopularTable: catalog: 61048, numindb: 6
Update: records affected: 1



GetName: 61048 SPACEMOBILE-002

Hit Count: updated at: Wed, 04 Dec 2024 18:51:55 GMT